Theta_e
315 314 315 317 316 315 317 316 319 319 318 317 324 323 327 340 341 343 340 336 338 342 339 339 343 346 349 350 353 353 353 355 354 355 355 355 355 353 351 351 350 350 353 353
314 312 313 315 314 313 315 318 317 317 318 322 324 325 323 322 339 341 339 337 337 336 337 343 339 344 348 350 353 354 354 355 355 356 358 358 358 357 357 356 355 353 352 353
313 311 313 316 314 315 320 325 321 325 324 324 325 326 328 326 331 337 339 335 335 334 338 342 345 341 345 349 352 354 355 355 356 356 356 356 357 358 359 358 357 355 354 353
311 313 317 315 322 322 327 328 326 325 326 325 324 325 328 329 329 329 337 336 338 336 335 341 348 346 342 347 353 354 355 355 356 356 356 356 356 357 357 358 358 358 356 355
314 313 314 317 326 327 327 328 325 325 325 324 324 325 332 325 327 332 332 330 332 338 342 350 354 355 346 347 350 353 353 355 355 355 354 354 356 356 356 356 356 356 357 356
314 321 322 321 325 324 323 325 324 324 324 324 323 325 325 323 325 331 337 338 342 343 342 344 352 356 355 355 355 356 356 357 358 359 357 353 349 350 353 353 354 354 356 356
322 325 323 324 323 323 326 324 323 323 323 322 323 321 321 321 324 328 336 339 341 341 341 342 340 342 345 346 347 348 347 347 347 347 347 349 360 362 360 354 350 351 353 354
323 327 327 323 322 326 323 321 322 322 322 322 321 321 321 322 323 325 331 338 338 339 340 339 337 335 339 340 342 346 348 347 346 346 348 348 355 360 361 360 361 357 352 351
323 323 319 320 320 320 320 320 322 321 321 321 321 322 322 321 321 324 327 335 337 337 336 335 334 334 335 337 338 339 343 344 345 346 346 346 352 356 357 364 366 365 355 346
321 319 320 320 321 320 321 322 322 322 322 321 322 322 322 321 322 324 325 332 337 335 333 333 333 333 334 337 339 340 340 339 342 344 346 346 344 342 346 354 362 356 346 342
318 318 320 324 325 324 323 323 324 323 324 324 323 323 323 322 324 324 324 338 335 332 331 331 332 332 334 336 339 340 343 344 345 342 340 338 334 331 334 342 350 352 353 351
326 323 324 325 325 324 325 325 325 324 324 323 324 324 323 322 323 327 330 335 331 331 331 332 332 332 335 337 338 336 338 342 337 336 332 333 329 326 327 334 346 347 348 347
323 322 323 323 324 325 325 325 325 324 323 324 324 324 323 324 324 330 332 330 330 330 329 330 332 333 335 337 338 340 341 337 334 332 328 327 327 329 326 327 334 334 334 335
320 322 324 329 329 327 326 322 322 326 326 327 324 323 323 323 327 331 330 330 329 328 329 331 331 332 333 335 336 335 334 331 329 326 324 323 322 322 322 318 316 318 329 332
327 329 328 326 327 323 322 323 325 325 325 325 324 323 323 329 330 329 328 329 328 326 327 328 329 331 332 332 331 329 327 325 323 321 320 320 319 318 317 316 316 315 316 319
330 329 328 327 325 324 324 324 324 324 324 324 324 324 325 327 326 325 325 325 323 323 325 326 327 329 331 330 328 325 323 321 320 320 320 320 320 319 318 318 317 316 317 317
331 328 328 328 326 327 325 324 325 326 326 326 325 325 326 325 323 321 321 322 322 324 323 323 326 329 329 327 326 325 324 323 322 322 321 321 320 320 319 318 317 316 318 319
330 330 329 327 326 327 328 327 327 326 325 325 325 325 324 323 322 322 321 321 321 321 321 322 327 327 327 326 325 324 323 322 321 321 320 320 318 317 316 316 316 315 314 317
330 328 328 328 326 325 324 324 325 324 325 325 325 324 323 321 320 319 319 320 319 319 319 321 322 322 322 322 325 323 322 321 320 319 318 317 317 317 316 315 316 317 317 316
329 326 325 324 325 325 324 324 323 322 321 320 320 319 319 318 318 318 318 318 319 319 318 319 320 319 320 320 321 321 320 319 316 315 315 316 316 315 316 316 316 316 316 316
326 326 325 325 324 321 320 320 320 319 318 319 318 318 318 318 318 318 317 316 318 319 319 319 318 317 317 318 318 317 316 315 315 315 315 315 316 316 316 315 315 315 314 313
326 325 324 324 322 320 319 319 318 317 317 318 317 318 318 317 317 316 315 315 318 319 319 319 319 317 317 317 317 317 317 316 316 315 315 316 315 315 315 314 313 312 311 311
325 324 324 323 321 321 322 321 320 320 320 318 316 315 314 314 315 313 311 315 317 319 319 317 316 317 316 315 314 314 314 314 313 313 312 312 311 312 312 312 313 312 312 312
323 322 322 322 323 323 319 317 316 315 313 313 313 314 314 314 313 313 315 315 314 315 315 314 314 313 314 315 315 315 314 315 316 317 317 316 316 316 316 316 315 314 315 316
323 323 324 324 324 323 317 311 311 310 310 311 312 313 314 313 313 313 314 314 314 314 315 314 315 317 317 318 318 318 318 317 317 315 314 313 314 316 315 314 311 309 310 309
325 325 327 327 324 322 321 321 317 311 309 309 310 312 312 312 313 315 315 316 316 317 317 317 317 317 317 317 317 316 316 316 315 313 312 312 312 313 314 313 312 311 311 310
326 327 327 326 325 325 324 321 315 312 310 311 311 312 313 314 315 316 317 317 318 318 318 319 319 319 319 318 316 315 316 316 315 314 312 313 312 312 313 313 313 313 313 312
Wind_Speed
4 6 3 4 4 4 5 8 6 8 6 6 13 15 13 8 8 4 8 9 7 5 6 7 17 24 28 30 31 32 31 30 34 37 34 33 34 38 39 39 43 44 41 40
3 4 3 4 8 8 8 2 6 5 4 8 15 9 9 11 9 9 9 10 11 5 7 7 15 24 29 30 31 33 31 33 35 30 30 34 35 37 37 39 41 41 41 39
4 3 6 5 3 2 6 4 2 4 4 11 19 20 11 10 14 15 13 11 11 7 7 4 10 21 27 33 36 36 34 31 29 30 32 36 36 32 34 38 38 41 42 41
4 2 3 3 6 12 12 5 7 5 9 10 13 17 5 11 14 14 10 11 5 3 7 10 6 19 24 26 28 27 25 26 29 30 32 28 27 32 34 34 36 38 38 39
1 2 5 6 5 3 3 0 5 9 14 15 16 13 4 22 22 13 5 7 6 8 9 18 21 15 18 16 19 19 19 19 22 25 28 30 31 34 35 31 34 36 37 38
2 2 4 2 5 5 4 4 4 7 12 13 13 7 4 17 19 16 12 11 12 15 19 26 26 28 30 25 24 18 13 12 10 8 14 23 30 33 34 33 35 33 35 38
1 3 6 2 7 6 3 3 4 6 11 10 5 4 11 15 14 14 8 10 16 20 20 21 22 22 23 20 17 10 8 6 4 2 2 6 10 14 20 26 30 29 30 30
1 3 6 4 7 3 6 3 6 6 10 14 11 11 7 10 10 9 9 6 12 15 17 19 20 19 16 16 12 9 6 7 7 9 9 10 12 15 17 20 25 25 26 26
6 5 6 13 7 9 5 7 7 6 10 12 14 6 6 7 9 7 9 11 8 10 10 15 18 20 16 16 14 11 10 7 9 11 11 12 11 12 12 12 19 18 19 20
3 5 11 10 10 12 11 13 10 13 12 11 13 11 5 7 10 8 8 8 3 9 9 10 15 18 19 20 18 15 14 12 11 13 13 11 10 10 11 11 12 14 15 16
6 10 8 12 13 18 20 19 18 18 18 20 16 18 15 9 11 9 11 6 6 5 7 5 8 9 10 14 17 18 16 12 8 6 5 4 5 12 14 13 11 15 21 24
6 12 12 12 17 22 19 18 20 17 19 19 19 16 11 11 7 11 11 5 4 6 8 8 10 12 11 10 10 12 12 8 3 1 3 3 3 7 11 6 6 12 16 20
10 6 15 17 20 19 18 20 17 20 21 22 21 17 13 10 6 12 8 6 5 7 10 10 11 12 13 12 14 13 7 1 3 4 4 3 4 2 6 18 13 13 9 13
16 12 11 12 13 18 13 13 19 18 16 17 18 19 12 3 5 5 7 15 6 7 6 7 9 9 9 10 9 5 1 7 7 8 8 9 9 11 10 11 16 22 23 23
13 14 12 16 15 10 7 8 11 10 7 1 10 9 7 2 5 4 2 17 3 4 7 6 4 8 6 6 3 1 6 9 12 13 15 18 20 23 21 20 20 20 25 24
15 15 13 9 10 8 7 7 7 7 5 2 5 6 8 10 12 9 2 5 7 4 11 12 13 14 14 11 9 7 8 13 18 19 19 18 22 24 22 22 22 14 27 16
9 11 10 11 7 6 3 2 4 5 6 6 5 11 12 13 11 9 10 12 10 15 18 17 19 21 19 17 13 12 14 18 21 23 21 22 19 18 18 20 24 19 24 22
9 11 9 9 5 5 7 6 2 2 3 6 12 12 9 11 9 10 12 15 20 21 19 20 16 15 12 13 15 15 17 17 19 18 20 21 23 28 24 25 21 17 15 17
8 7 7 9 7 7 7 7 10 12 13 12 14 13 15 15 17 19 16 18 16 17 16 13 11 12 12 13 17 18 18 20 22 23 23 24 22 21 21 21 23 25 25 22
7 7 8 9 10 11 9 13 17 17 17 20 22 21 19 19 19 17 18 15 12 11 15 17 17 17 16 16 18 22 22 21 21 22 23 22 23 23 22 23 22 19 17 15
6 7 8 10 12 17 17 17 19 17 17 19 21 18 18 17 17 15 12 7 13 15 18 21 19 19 19 21 23 22 21 20 18 17 19 19 19 17 16 15 15 14 14 13
7 6 10 12 13 15 14 18 21 17 18 16 19 18 17 15 16 15 13 12 12 18 20 19 18 21 21 19 19 18 17 17 16 14 13 12 11 10 10 10 10 9 8 6
12 12 13 12 11 11 15 15 14 15 11 11 15 17 14 12 12 12 7 16 20 19 19 20 20 20 19 19 19 18 17 17 17 16 14 13 12 11 9 8 6 4 2 1
14 12 11 10 10 11 8 13 13 14 16 16 16 14 16 17 15 14 16 18 18 18 18 17 16 16 16 16 16 16 15 15 14 11 10 9 8 8 9 9 8 7 4 2
13 11 9 9 10 8 15 16 16 15 16 15 15 16 16 15 16 15 15 15 13 13 14 13 12 11 11 11 12 11 9 9 7 7 9 8 5 4 6 5 4 5 5 5
8 8 8 11 10 12 12 13 12 12 13 12 12 12 13 13 13 14 13 12 10 8 8 7 5 5 6 7 6 5 6 7 5 5 5 4 4 3 3 2 1 3 7 7
6 8 9 11 9 10 13 12 13 12 13 13 12 10 10 9 8 7 5 4 2 1 1 1 2 2 2 1 0 2 3 1 2 4 3 3 3 3 6 8 9 12 15 17
Wind_Direction
231 247 221 224 206 196 212 230 181 266 224 357 329 317 299 272 298 214 269 297 256 236 166 169 180 180 186 195 196 201 201 207 213 218 219 221 224 228 231 233 239 243 245 248
296 354 42 283 273 235 214 277 250 279 290 351 318 313 321 314 271 276 276 271 282 313 299 166 193 185 187 190 192 196 200 209 215 214 216 221 223 226 231 235 237 241 244 244
258 3 349 337 279 93 82 2 327 24 326 330 334 334 326 329 312 248 246 245 274 297 284 306 212 201 195 196 187 190 200 207 211 212 216 221 224 224 229 233 235 238 242 244
237 7 165 219 17 104 103 49 17 331 327 335 325 319 256 10 342 296 228 230 223 321 317 347 5 206 196 189 188 190 199 198 205 212 219 222 224 227 231 231 233 237 239 243
164 206 290 315 46 351 17 122 359 334 333 336 342 323 306 359 350 346 48 40 43 52 33 62 51 67 137 143 162 171 184 198 209 219 228 231 231 234 236 231 234 239 242 243
128 178 240 229 300 258 157 229 348 331 324 332 345 357 281 342 339 344 24 32 56 53 53 50 52 65 73 68 79 87 100 119 135 173 225 241 246 244 242 239 239 239 240 244
353 254 283 229 283 303 140 215 298 300 304 306 288 221 285 313 322 337 340 46 62 57 58 51 55 58 62 64 59 47 49 47 33 22 303 265 263 262 259 250 246 244 244 245
97 239 274 210 348 113 230 247 273 267 281 287 281 282 285 302 301 322 314 29 60 58 55 48 47 49 48 35 21 12 29 15 351 335 326 300 279 272 270 270 265 249 238 237
187 229 255 297 253 265 216 246 268 244 263 269 279 265 293 295 306 295 295 290 107 91 52 30 27 26 22 4 357 338 328 342 337 328 319 305 295 286 284 275 250 241 220 217
356 272 255 275 285 279 282 280 275 280 255 246 261 264 259 288 297 284 268 272 233 108 65 26 19 5 354 344 340 334 327 325 317 314 320 319 314 302 295 285 274 215 191 193
260 281 280 280 300 299 297 290 283 275 269 270 260 259 268 266 274 286 273 225 235 137 117 67 6 3 355 343 330 325 319 313 292 291 307 325 343 350 319 282 257 218 220 211
265 292 294 281 290 290 287 281 282 273 269 260 257 251 246 246 253 260 259 230 323 38 52 23 0 347 345 348 328 301 286 279 262 312 334 350 20 29 26 341 277 215 230 216
276 260 291 284 282 277 281 283 283 276 269 261 248 241 227 235 261 271 204 96 355 21 12 356 346 348 343 345 334 317 305 294 74 75 68 61 86 72 68 74 90 102 136 156
288 295 281 279 287 297 288 281 289 290 287 250 228 213 203 196 249 229 215 93 11 339 16 359 345 352 345 345 343 305 163 147 138 124 119 108 101 92 87 73 78 75 106 117
298 311 279 279 294 285 275 293 327 333 328 358 171 122 131 130 112 111 34 104 163 257 56 57 40 24 39 42 51 174 155 134 128 121 117 110 100 94 87 80 81 85 87 91
313 318 302 296 290 287 289 314 336 339 351 46 123 125 116 112 100 76 83 124 109 68 75 70 64 66 72 75 83 85 99 111 110 105 98 98 101 99 91 89 81 81 92 88
312 327 311 315 311 309 276 318 339 17 18 52 117 126 129 115 105 85 74 89 107 83 71 62 65 72 81 92 98 106 103 95 96 94 89 89 91 92 100 97 100 93 94 94
297 292 286 263 290 359 5 18 265 114 88 29 110 115 99 93 106 95 78 79 77 70 62 61 73 89 91 106 109 105 94 91 92 88 92 93 103 109 106 102 99 93 86 95
18 26 22 46 46 55 51 44 52 67 82 88 97 91 86 80 79 77 82 67 56 48 45 80 88 101 99 110 121 110 101 99 97 94 95 102 101 98 96 97 101 103 107 104
32 60 52 59 58 54 56 52 62 62 79 93 95 89 82 78 84 81 78 69 70 84 87 85 90 92 99 105 109 111 110 106 101 99 100 106 111 107 106 108 114 117 121 131
41 57 61 60 59 60 68 76 80 75 72 84 86 87 94 94 97 92 88 75 78 84 88 89 94 98 102 107 108 110 110 111 109 105 106 110 114 115 114 118 127 143 148 154
54 62 70 69 70 70 66 85 88 82 84 90 103 102 91 86 85 84 80 92 104 100 95 92 94 99 102 105 108 108 109 108 107 108 112 125 128 129 130 134 131 134 127 133
71 73 84 90 92 94 90 88 99 103 97 99 101 107 113 121 112 97 69 97 99 102 106 106 106 108 108 108 106 106 106 105 101 95 98 105 110 107 104 96 88 87 74 71
92 97 96 99 94 70 55 75 88 97 106 109 111 115 116 108 95 91 97 102 105 108 114 116 113 113 111 107 103 101 104 102 98 88 84 83 88 98 104 106 92 72 45 14
104 106 99 88 74 76 87 85 82 86 94 98 104 110 113 109 103 100 102 101 103 105 102 105 106 99 87 81 85 88 103 113 99 90 86 73 69 134 142 122 87 93 37 21
90 86 69 83 100 104 98 87 87 92 97 93 98 109 109 105 101 102 103 106 112 119 112 104 93 82 75 67 58 97 113 118 117 103 89 76 76 108 149 190 290 294 296 285
95 72 72 73 89 82 76 86 96 99 107 111 108 114 116 117 113 111 109 112 118 328 343 27 15 343 304 267 92 134 169 190 235 237 275 279 284 271 255 258 272 283 282 280